TimePST,TemperatureF,Dew PointF,Humidity,Sea Level PressureIn,VisibilityMPH,Wind Direction,Wind SpeedMPH,Gust SpeedMPH,PrecipitationIn,Events,Conditions,WindDirDegrees,DateUTC
12:56 AM,46.9,45.0,93,30.38,10.0,Variable,4.6,-,N/A,,Clear,0,2013-01-31 08:56:00
1:56 AM,45.0,43.9,96,30.38,10.0,Variable,3.5,-,N/A,,Clear,0,2013-01-31 09:56:00
2:56 AM,41.0,41.0,100,30.38,10.0,Calm,Calm,-,N/A,,Clear,0,2013-01-31 10:56:00
3:56 AM,38.8,38.8,100,30.37,10.0,Calm,Calm,-,N/A,,Clear,0,2013-01-31 11:56:00
4:56 AM,38.8,38.8,100,30.36,10.0,Calm,Calm,-,N/A,,Clear,0,2013-01-31 12:56:00
5:56 AM,37.9,37.9,100,30.35,10.0,Calm,Calm,-,N/A,,Clear,0,2013-01-31 13:56:00
6:56 AM,37.9,37.9,100,30.35,10.0,Calm,Calm,-,N/A,,Clear,0,2013-01-31 14:56:00
7:56 AM,36.9,36.9,100,30.36,10.0,Calm,Calm,-,N/A,,Clear,0,2013-01-31 15:56:00
8:56 AM,43.9,43.0,97,30.35,10.0,ENE,6.9,-,N/A,,Clear,60,2013-01-31 16:56:00
9:56 AM,47.8,43.9,86,30.35,10.0,SE,5.8,-,N/A,,Clear,140,2013-01-31 17:56:00
10:56 AM,47.8,45.0,90,30.36,10.0,WNW,4.6,-,N/A,,Clear,290,2013-01-31 18:56:00
11:56 AM,50.0,46.9,89,30.34,10.0,Calm,Calm,-,N/A,,Clear,0,2013-01-31 19:56:00
12:30 PM,51.8,46.4,82,30.32,2.5,WNW,5.8,-,N/A,,Clear,290,2013-01-31 20:30:00
12:39 PM,51.8,48.2,88,30.32,10.0,West,5.8,-,N/A,,Clear,280,2013-01-31 20:39:00
12:56 PM,48.9,45.9,89,30.32,10.0,WNW,8.1,-,N/A,,Clear,290,2013-01-31 20:56:00
1:56 PM,52.9,45.9,77,30.30,10.0,WNW,8.1,-,N/A,,Clear,290,2013-01-31 21:56:00
2:56 PM,52.9,46.9,80,30.29,10.0,WNW,5.8,-,N/A,,Clear,290,2013-01-31 22:56:00
3:56 PM,55.9,47.8,74,30.28,10.0,Calm,Calm,-,N/A,,Clear,0,2013-01-31 23:56:00
4:56 PM,50.9,48.9,93,30.28,10.0,SE,3.5,-,N/A,,Clear,140,2013-02-01 00:56:00
5:56 PM,46.9,46.9,100,30.27,10.0,Calm,Calm,-,N/A,,Clear,0,2013-02-01 01:56:00
6:56 PM,45.0,45.0,100,30.26,10.0,Calm,Calm,-,N/A,,Clear,0,2013-02-01 02:56:00
8:56 PM,43.0,43.0,100,30.26,10.0,Calm,Calm,-,N/A,,Clear,0,2013-02-01 04:56:00
10:56 PM,41.9,41.9,100,30.25,10.0,Calm,Calm,-,N/A,,Clear,0,2013-02-01 06:56:00
11:56 PM,39.9,39.9,100,30.25,10.0,Calm,Calm,-,N/A,,Clear,0,2013-02-01 07:56:00